| time (UTC) | temp F | wind direction | speed MPH | gust MPH | rain 1hr in | rain 24hr in | rain mn in | humidity % | barometer mb |
| 20260901192427 | 94 | 129 | 2.0 | 5.0 | 0.00 | 0.00 | 0.00 | 40 | 1017.3 |
| 20260901191424 | 94 | 128 | 2.0 | 6.0 | 0.00 | 0.00 | 0.00 | 41 | 1017.5 |
| 20260901190424 | 94 | 115 | 2.0 | 7.0 | 0.00 | 0.00 | 0.00 | 41 | 1017.7 |
| 20260901185425 | 96 | 100 | 2.0 | 7.0 | 0.00 | 0.00 | 0.00 | 40 | 1017.7 |
| 20260901184423 | 96 | 165 | 5.0 | 11.0 | 0.00 | 0.00 | 0.00 | 40 | 1017.7 |
| 20260901183424 | 96 | 355 | 4.0 | 7.0 | 0.00 | 0.00 | 0.00 | 40 | 1017.9 |
| 20260901182419 | 95 | 194 | 3.0 | 8.0 | 0.00 | 0.00 | 0.00 | 43 | 1018.2 |
| 20260901181420 | 95 | 231 | 2.0 | 8.0 | 0.00 | 0.00 | 0.00 | 42 | 1018.3 |
| 20260901180902 | 95 | 186 | 3.0 | 9.0 | 0.00 | 0.00 | 0.00 | 41 | 1018.6 |
| 20260901175417 | 96 | 199 | 6.0 | 10.0 | 0.00 | 0.00 | 0.00 | 41 | 1018.8 |
| 20260901174418 | 94 | 202 | 4.0 | 10.0 | 0.00 | 0.00 | 0.00 | 44 | 1018.9 |
| 20260901173417 | 94 | 186 | 4.0 | 10.0 | 0.00 | 0.00 | 0.00 | 43 | 1019.1 |
| 20260901172906 | 93 | 126 | 6.0 | 12.0 | 0.00 | 0.00 | 0.00 | 45 | 1019.1 |
| 20260901171418 | 95 | 199 | 6.0 | 12.0 | 0.00 | 0.00 | 0.00 | 43 | 1019.2 |
| 20260901170422 | 94 | 199 | 4.0 | 9.0 | 0.00 | 0.00 | 0.00 | 45 | 1019.5 |
| 20260901165903 | 94 | 217 | 4.0 | 10.0 | 0.00 | 0.00 | 0.00 | 45 | 1019.5 |
| 20260901164417 | 93 | 232 | 5.0 | 9.0 | 0.00 | 0.00 | 0.00 | 46 | 1019.7 |
| 20260901163414 | 93 | 169 | 8.0 | 14.0 | 0.00 | 0.00 | 0.00 | 46 | 1019.7 |
| 20260901162413 | 93 | 190 | 7.0 | 11.0 | 0.00 | 0.00 | 0.00 | 48 | 1019.8 |
| 20260901161415 | 93 | 171 | 4.0 | 12.0 | 0.00 | 0.00 | 0.00 | 48 | 1019.8 |
| 20260901160413 | 92 | 188 | 6.0 | 10.0 | 0.00 | 0.00 | 0.00 | 51 | 1019.9 |
| 20260901155413 | 92 | 172 | 7.0 | 15.0 | 0.00 | 0.00 | 0.00 | 49 | 1020.0 |
| 20260901154413 | 91 | 173 | 5.0 | 10.0 | 0.00 | 0.00 | 0.00 | 50 | 1020.0 |
| 20260901153414 | 91 | 195 | 3.0 | 10.0 | 0.00 | 0.00 | 0.00 | 51 | 1020.0 |
| 20260901152413 | 90 | 225 | 5.0 | 10.0 | 0.00 | 0.00 | 0.00 | 53 | 1019.8 |
| 20260901151849 | 90 | 168 | 6.0 | 14.0 | 0.00 | 0.00 | 0.00 | 54 | 1019.9 |
| 20260901150415 | 89 | 194 | 7.0 | 13.0 | 0.00 | 0.00 | 0.00 | 54 | 1020.0 |
| 20260901145414 | 88 | 181 | 8.0 | 14.0 | 0.00 | 0.00 | 0.00 | 56 | 1019.8 |
| 20260901144413 | 88 | 216 | 7.0 | 13.0 | 0.00 | 0.00 | 0.00 | 57 | 1020.0 |
| 20260901143413 | 87 | 178 | 6.0 | 11.0 | 0.00 | 0.00 | 0.00 | 59 | 1019.9 |
| 20260901142413 | 86 | 207 | 5.0 | 11.0 | 0.00 | 0.00 | 0.00 | 59 | 1020.0 |
| 20260901141414 | 85 | 180 | 4.0 | 8.0 | 0.00 | 0.00 | 0.00 | 62 | 1019.9 |
| 20260901140415 | 84 | 173 | 4.0 | 8.0 | 0.00 | 0.00 | 0.00 | 63 | 1020.0 |
| 20260901135414 | 83 | 198 | 3.0 | 7.0 | 0.00 | 0.00 | 0.00 | 65 | 1019.9 |
| 20260901134416 | 82 | 205 | 2.0 | 5.0 | 0.00 | 0.00 | 0.00 | 67 | 1020.1 |
| 20260901133412 | 80 | 209 | 0.0 | 3.0 | 0.00 | 0.00 | 0.00 | 70 | 1020.1 |
| 20260901132415 | 78 | 157 | 0.0 | 0.0 | 0.00 | 0.00 | 0.00 | 72 | 1019.9 |
| 20260901131414 | 78 | 157 | 0.0 | 0.0 | 0.00 | 0.00 | 0.00 | 75 | 1019.8 |
| 20260901130413 | 78 | 157 | 0.0 | 0.0 | 0.00 | 0.00 | 0.00 | 75 | 1019.7 |
| 20260901125847 | 77 | 157 | 0.0 | 0.0 | 0.00 | 0.00 | 0.00 | 74 | 1019.7 |
| 20260901124415 | 77 | 126 | 0.0 | 0.0 | 0.00 | 0.00 | 0.00 | 75 | 1019.7 |
| 20260901123412 | 76 | 128 | 0.0 | 0.0 | 0.00 | 0.00 | 0.00 | 75 | 1019.4 |
| 20260901122413 | 76 | 179 | 0.0 | 1.0 | 0.00 | 0.00 | 0.00 | 74 | 1019.2 |
| 20260901121410 | 76 | 242 | 0.0 | 0.0 | 0.00 | 0.00 | 0.00 | 73 | 1019.1 |
| 20260901120410 | 77 | 242 | 0.0 | 0.0 | 0.00 | 0.00 | 0.00 | 72 | 1019.0 |
| 20260901115408 | 76 | 242 | 0.0 | 0.0 | 0.00 | 0.00 | 0.00 | 72 | 1019.0 |
| 20260901114408 | 77 | 242 | 0.0 | 0.0 | 0.00 | 0.00 | 0.00 | 71 | 1018.9 |
| 20260901113846 | 77 | 214 | 0.0 | 1.0 | 0.00 | 0.00 | 0.00 | 71 | 1018.8 |
| 20260901112406 | 77 | 196 | 0.0 | 2.0 | 0.00 | 0.00 | 0.00 | 71 | 1018.8 |
| 20260901111405 | 77 | 248 | 0.0 | 0.0 | 0.00 | 0.00 | 0.00 | 71 | 1018.8 |
| 20260901110405 | 77 | 186 | 0.0 | 0.0 | 0.00 | 0.00 | 0.00 | 70 | 1018.7 |
| 20260901105406 | 77 | 186 | 0.0 | 0.0 | 0.00 | 0.00 | 0.00 | 70 | 1018.6 |
| 20260901104839 | 78 | 242 | 0.0 | 0.0 | 0.00 | 0.00 | 0.00 | 69 | 1018.4 |
| 20260901103406 | 79 | 199 | 0.0 | 2.0 | 0.00 | 0.00 | 0.00 | 67 | 1018.6 |
| 20260901102844 | 79 | 178 | 0.0 | 2.0 | 0.00 | 0.00 | 0.00 | 67 | 1018.4 |
| 20260901101404 | 79 | 150 | 0.0 | 2.0 | 0.00 | 0.00 | 0.00 | 67 | 1018.3 |
| 20260901100404 | 78 | 159 | 0.0 | 1.0 | 0.00 | 0.00 | 0.00 | 68 | 1018.3 |
| 20260901095402 | 78 | 245 | 0.0 | 1.0 | 0.00 | 0.00 | 0.00 | 68 | 1018.3 |
| 20260901094402 | 78 | 245 | 0.0 | 0.0 | 0.00 | 0.00 | 0.00 | 68 | 1018.3 |
| 20260901093403 | 78 | 245 | 0.0 | 1.0 | 0.00 | 0.00 | 0.00 | 67 | 1018.3 |
| 20260901092840 | 79 | 245 | 0.0 | 0.0 | 0.00 | 0.00 | 0.00 | 67 | 1018.2 |
| 20260901090851 | 79 | 245 | 0.0 | 0.0 | 0.00 | 0.00 | 0.00 | 67 | 1018.2 |
| 20260901085400 | 79 | 245 | 0.0 | 0.0 | 0.00 | 0.00 | 0.00 | 67 | 1018.1 |
| 20260901083358 | 81 | 184 | 1.0 | 3.0 | 0.00 | 0.00 | 0.00 | 63 | 1018.0 |
| 20260901082355 | 81 | 158 | 2.0 | 3.0 | 0.00 | 0.00 | 0.00 | 63 | 1018.1 |
| 20260901081351 | 81 | 157 | 3.0 | 4.0 | 0.00 | 0.00 | 0.00 | 63 | 1017.9 |
| 20260901080350 | 81 | 161 | 2.0 | 4.0 | 0.00 | 0.00 | 0.00 | 63 | 1017.9 |
| 20260901075351 | 81 | 157 | 2.0 | 4.0 | 0.00 | 0.00 | 0.00 | 62 | 1018.0 |
| 20260901074349 | 80 | 146 | 1.0 | 4.0 | 0.00 | 0.00 | 0.00 | 62 | 1017.8 |
| 20260901073343 | 81 | 133 | 1.0 | 3.0 | 0.00 | 0.00 | 0.00 | 61 | 1017.9 |
| 20260901072346 | 81 | 166 | 1.0 | 3.0 | 0.00 | 0.00 | 0.00 | 60 | 1018.2 |
| 20260901071823 | 82 | 177 | 2.0 | 4.0 | 0.00 | 0.00 | 0.00 | 59 | 1018.0 |
| 20260901070339 | 81 | 182 | 2.0 | 4.0 | 0.00 | 0.00 | 0.00 | 59 | 1018.0 |
| 20260901065338 | 81 | 150 | 1.0 | 6.0 | 0.00 | 0.00 | 0.00 | 59 | 1017.9 |
| 20260901064340 | 80 | 151 | 1.0 | 2.0 | 0.00 | 0.00 | 0.00 | 60 | 1017.8 |
| 20260901063337 | 80 | 151 | 0.0 | 1.0 | 0.00 | 0.00 | 0.00 | 59 | 1017.8 |
| 20260901062815 | 80 | 151 | 1.0 | 2.0 | 0.00 | 0.00 | 0.00 | 59 | 1017.9 |
| 20260901061335 | 81 | 151 | 0.0 | 1.0 | 0.00 | 0.00 | 0.00 | 59 | 1017.8 |
| 20260901060337 | 81 | 151 | 0.0 | 2.0 | 0.00 | 0.00 | 0.00 | 57 | 1018.0 |
| 20260901055334 | 82 | 123 | 2.0 | 4.0 | 0.00 | 0.00 | 0.00 | 56 | 1017.9 |
| 20260901054336 | 83 | 121 | 3.0 | 6.0 | 0.00 | 0.00 | 0.00 | 54 | 1017.8 |
| 20260901053335 | 83 | 124 | 3.0 | 6.0 | 0.00 | 0.00 | 0.00 | 54 | 1017.7 |
| 20260901052335 | 83 | 138 | 4.0 | 8.0 | 0.00 | 0.00 | 0.00 | 53 | 1017.6 |
| 20260901051822 | 84 | 130 | 4.0 | 8.0 | 0.00 | 0.00 | 0.00 | 52 | 1017.7 |
| 20260901045336 | 84 | 133 | 4.0 | 8.0 | 0.00 | 0.00 | 0.00 | 51 | 1017.5 |
| 20260901044332 | 84 | 140 | 3.0 | 4.0 | 0.00 | 0.00 | 0.00 | 50 | 1017.6 |
| 20260901043332 | 84 | 134 | 3.0 | 4.0 | 0.00 | 0.00 | 0.00 | 50 | 1017.6 |
| 20260901042333 | 85 | 159 | 3.0 | 5.0 | 0.00 | 0.00 | 0.00 | 49 | 1017.5 |
| 20260901041332 | 85 | 134 | 4.0 | 7.0 | 0.00 | 0.00 | 0.00 | 48 | 1017.4 |
| 20260901040823 | 85 | 138 | 4.0 | 6.0 | 0.00 | 0.00 | 0.00 | 47 | 1017.5 |
| 20260901035333 | 85 | 140 | 4.0 | 6.0 | 0.00 | 0.00 | 0.00 | 46 | 1017.5 |
| 20260901034333 | 86 | 136 | 4.0 | 8.0 | 0.00 | 0.00 | 0.00 | 46 | 1017.5 |
| 20260901033815 | 86 | 134 | 4.0 | 7.0 | 0.00 | 0.00 | 0.00 | 45 | 1017.4 |
| 20260901032332 | 86 | 121 | 4.0 | 8.0 | 0.00 | 0.00 | 0.00 | 44 | 1017.4 |
| 20260901031330 | 86 | 174 | 5.0 | 8.0 | 0.00 | 0.00 | 0.00 | 44 | 1017.4 |
| 20260901030330 | 86 | 131 | 5.0 | 8.0 | 0.00 | 0.00 | 0.00 | 44 | 1017.3 |
| 20260901025330 | 87 | 157 | 5.0 | 9.0 | 0.00 | 0.00 | 0.00 | 43 | 1017.3 |
| 20260901024333 | 87 | 137 | 5.0 | 8.0 | 0.00 | 0.00 | 0.00 | 44 | 1017.2 |
| 20260901023330 | 87 | 130 | 5.0 | 8.0 | 0.00 | 0.00 | 0.00 | 44 | 1017.0 |
| 20260901022816 | 88 | 146 | 4.0 | 8.0 | 0.00 | 0.00 | 0.00 | 44 | 1016.8 |
| 20260901021331 | 88 | 128 | 4.0 | 7.0 | 0.00 | 0.00 | 0.00 | 43 | 1016.7 |
| 20260901020332 | 88 | 119 | 5.0 | 9.0 | 0.00 | 0.00 | 0.00 | 43 | 1016.5 |
| 20260901015329 | 89 | 134 | 5.0 | 7.0 | 0.00 | 0.00 | 0.00 | 42 | 1016.5 |
| 20260901014330 | 89 | 163 | 4.0 | 7.0 | 0.00 | 0.00 | 0.00 | 41 | 1016.3 |
| 20260901013329 | 90 | 134 | 4.0 | 7.0 | 0.00 | 0.00 | 0.00 | 40 | 1016.3 |
| 20260901012329 | 90 | 131 | 4.0 | 6.0 | 0.00 | 0.00 | 0.00 | 40 | 1016.2 |
| 20260901011328 | 91 | 140 | 4.0 | 7.0 | 0.00 | 0.00 | 0.00 | 40 | 1016.2 |
| 20260901010331 | 91 | 140 | 5.0 | 10.0 | 0.00 | 0.00 | 0.00 | 40 | 1016.0 |
| 20260901005329 | 92 | 121 | 3.0 | 6.0 | 0.00 | 0.00 | 0.00 | 38 | 1015.9 |
| 20260901004330 | 92 | 167 | 3.0 | 6.0 | 0.00 | 0.00 | 0.00 | 38 | 1015.7 |
| 20260901003330 | 93 | 160 | 4.0 | 7.0 | 0.00 | 0.00 | 0.00 | 37 | 1015.6 |
| 20260901002324 | 93 | 171 | 3.0 | 7.0 | 0.00 | 0.00 | 0.00 | 37 | 1015.6 |
| 20260901001809 | 94 | 174 | 4.0 | 6.0 | 0.00 | 0.00 | 0.00 | 36 | 1015.5 |
| 20260901000325 | 95 | 184 | 6.0 | 9.0 | 0.00 | 0.00 | 0.00 | 34 | 1015.5 |
| 20260831235804 | 96 | 180 | 6.0 | 9.0 | 0.00 | 0.00 | 0.00 | 33 | 1015.5 |
| 20260831234322 | 96 | 176 | 5.0 | 9.0 | 0.00 | 0.00 | 0.00 | 34 | 1015.6 |
| 20260831233322 | 96 | 194 | 4.0 | 7.0 | 0.00 | 0.00 | 0.00 | 33 | 1015.6 |
| 20260831232756 | 96 | 221 | 4.0 | 10.0 | 0.00 | 0.00 | 0.00 | 33 | 1015.6 |
| 20260831231322 | 96 | 183 | 6.0 | 10.0 | 0.00 | 0.00 | 0.00 | 32 | 1015.6 |
| 20260831230323 | 98 | 174 | 6.0 | 12.0 | 0.00 | 0.00 | 0.00 | 30 | 1015.7 |
| 20260831224321 | 98 | 157 | 6.0 | 15.0 | 0.00 | 0.00 | 0.00 | 30 | 1015.7 |
| 20260831223803 | 98 | 146 | 6.0 | 11.0 | 0.00 | 0.00 | 0.00 | 28 | 1015.9 |
| 20260831222321 | 98 | 165 | 5.0 | 10.0 | 0.00 | 0.00 | 0.00 | 29 | 1015.9 |
| 20260831221322 | 98 | 211 | 9.0 | 16.0 | 0.00 | 0.00 | 0.00 | 29 | 1016.0 |
| 20260831220321 | 98 | 203 | 4.0 | 11.0 | 0.00 | 0.00 | 0.00 | 30 | 1016.0 |
| 20260831215321 | 99 | 202 | 8.0 | 13.0 | 0.00 | 0.00 | 0.00 | 28 | 1016.0 |
| 20260831214806 | 100 | 173 | 6.0 | 15.0 | 0.00 | 0.00 | 0.00 | 28 | 1016.0 |
| 20260831213322 | 99 | 153 | 4.0 | 9.0 | 0.00 | 0.00 | 0.00 | 29 | 1016.0 |
| 20260831212323 | 100 | 134 | 3.0 | 11.0 | 0.00 | 0.00 | 0.00 | 29 | 1016.2 |
| 20260831211322 | 100 | 84 | 4.0 | 11.0 | 0.00 | 0.00 | 0.00 | 28 | 1016.2 |
| 20260831210322 | 100 | 178 | 5.0 | 16.0 | 0.00 | 0.00 | 0.00 | 29 | 1016.1 |
| 20260831205321 | 100 | 306 | 3.0 | 8.0 | 0.00 | 0.00 | 0.00 | 30 | 1016.4 |
| 20260831204321 | 99 | 320 | 2.0 | 8.0 | 0.00 | 0.00 | 0.00 | 32 | 1016.4 |
| 20260831203321 | 98 | 178 | 5.0 | 13.0 | 0.00 | 0.00 | 0.00 | 32 | 1016.7 |
| 20260831202322 | 99 | 180 | 6.0 | 15.0 | 0.00 | 0.00 | 0.00 | 31 | 1016.7 |
| 20260831201319 | 99 | 169 | 6.0 | 17.0 | 0.00 | 0.00 | 0.00 | 31 | 1016.8 |
| 20260831200319 | 99 | 238 | 2.0 | 8.0 | 0.00 | 0.00 | 0.00 | 31 | 1016.8 |
| 20260831195318 | 99 | 118 | 6.0 | 14.0 | 0.00 | 0.00 | 0.00 | 31 | 1017.0 |
| 20260831194319 | 98 | 119 | 3.0 | 8.0 | 0.00 | 0.00 | 0.00 | 33 | 1017.0 |
| 20260831193316 | 97 | 195 | 2.0 | 6.0 | 0.00 | 0.00 | 0.00 | 35 | 1017.2 |